Location: Kershaw
(34.5481°N, 80.5823°W)
Time: 01:21:05
(UTC+00:00)

Altair - Pass Details

Date: 10 October 2022
Orbit: 1501 x 1682 km, 47.2° (Epoch: 05 December)

Event Time Altitude Azimuth Distance (km) Brightness Sun altitude
Exits shadow 07:41:36 52° 68° (ENE) 1,919 8.0 -45.2°
Drops below altitude 10° 07:48:34 10° 56° (ENE) 3,858 10.2 -44.0°
Sets 07:51:45 0° 56° (NE) 4,869 10.9 -43.4°
